Location: Mainz-Finthen
(49.9906°N, 8.1713°E)
Time: 06:58:35
(UTC+00:00)

Tiangong - Visible Passes

Search period start: 27 February 2024 00:00
Search period end: 08 March 2024 00:00
Orbit: 375 x 385 km, 41.5° (Epoch: 26 February)

Date Brightness Start Highest point End Pass type
(mag) Time Alt. Az. Time Alt. Az. Time Alt. Az.
29 Feb 0.5 18:50:47 10° S 18:51:09 11° S 18:51:09 11° S visible
01 Mar 0.7 19:24:50 10° SW 19:25:05 11° SSW 19:25:05 11° SSW visible
02 Mar 0.1 18:24:02 10° SSW 18:25:48 14° SSE 18:26:47 13° SSE visible
03 Mar -0.1 18:58:28 10° SW 19:00:28 17° S 19:00:28 17° S visible
04 Mar 0.0 17:57:19 10° SW 17:59:21 16° S 18:01:23 10° SE visible
04 Mar 0.6 19:33:27 10° SW 19:34:02 12° SW 19:34:02 12° SW visible
05 Mar 0.0 18:31:55 10° SW 18:34:03 17° S 18:35:26 13° SSE visible
06 Mar 0.3 19:07:05 10° SW 19:08:37 13° SSW 19:08:52 13° S visible
07 Mar 0.2 18:05:10 10° SW 18:07:08 16° S 18:09:06 10° SSE visible
